Location: Philomena
(55.1756°N, 111.6233°W)
Time: 10:09:47
(UTC+00:00)

PCSat - Pass Details

Date: 09 December 2023
Orbit: 784 x 791 km, 67.0° (Epoch: 23 February)

Event Time Altitude Azimuth Distance (km) Brightness Sun altitude
Exits shadow 10:27:17 15° 61° (ENE) 2,006 12.2 -42.6°
Drops below altitude 10° 10:28:23 10° 54° (NE) 2,361 12.6 -42.4°
Sets 10:31:01 0° 45° (NE) 3,296 13.5 -42.1°
